Location: Newark
(44.2003°N, 3.2583°E)
Time: 21:40:40
(UTC+00:00)

SR - Pass Details

Date: 29 October 2019
Orbit: 574 x 882 km, 66.7° (Epoch: 18 November)

Event Time Altitude Azimuth Distance (km) Brightness Sun altitude
Rises 19:14:38 0° 199° (SSW) 3,053 ? -27.9°
Reaches altitude 10° 19:16:53 10° 196° (SSW) 2,187 ? -28.3°
Enters shadow 19:17:33 14° 194° (SSW) 1,941 ? -28.5°
Maximum altitude 19:21:49 61° 117° (ESE) 864 - -29.2°
Drops below altitude 10° 19:27:15 10° 38° (NE) 2,404 - -30.2°
Sets 19:29:49 0° 35° (NE) 3,382 - -30.6°
